Kosmos-1995

operational
NORAD ID: 19786 Int'l Des: 1989-009 Owner: UNKS Country: SU
LEOCIRCULARPOLAR

Kosmos-1995について

説明を読み込み中...

リアルタイム位置

3D地球を読み込み中...

次回通過

高度履歴

Altitude vs Time

uPlot chart will show altitude changes over time

軌道要素

1 19786U 89009B 26061.17437028 .00000042 00000-0 17699-3 0 9995
2 19786 82.6182 96.6425 0003507 27.1373 33.3965 12.62231374706845
Epoch: Mar 2, 2026 • Age: 29 hours

現在のステータス

高度 1419.3 km
速度 7.15 km/s
衛星直下点 32.36°N, 29.67°E
打ち上げ日 Feb 10, 1989
運用期間 37 years
タイプ other

技術仕様

分類 Payload
質量 225.00 kg
乾燥質量 225.00 kg
総質量 225.00 kg
長さ 1.60 m
直径 0.80 m
スパン 7.00 m
形状 Cyl + Ant
製造者 NPOPM
バスタイプ Strela-3
フェーズステータス In Orbit
所有者/国 UNKS/SU

大規模コンステレーション

Loading constellations...